Location: Tierz
(42.1336°N, 0.3549°W)
Time: 17:39:07
(UTC+00:00)

Cosmos 1553 Rocket - Pass Details

Date: 29 October 2020
Orbit: 940 x 1009 km, 82.9° (Epoch: 03 December)

Event Time Altitude Azimuth Distance (km) Brightness Sun altitude
Rises 17:39:44 0° 170° (S) 3,713 7.1 -8.2°
Reaches altitude 10° 17:42:20 10° 165° (SSE) 2,761 6.3 -8.7°
Maximum altitude 17:48:26 52° 91° (E) 1,215 4.2 -9.8°
Drops below altitude 10° 17:54:29 10° 17° (NNE) 2,736 6.1 -10.9°
Sets 17:57:03 0° 13° (NNE) 3,678 6.8 -11.4°
